www.pogodaiklimat.ru

Погода и климат >> Архив погоды >> Норвегия >> Гуллфакс


ПОГОДА на Гуллфаксе

  • Прогноз погоды на Гуллфаксе
  • Монитор погоды на Гуллфаксе

АРХИВ ПОГОДЫ на Гуллфаксе

Время (UTC), дата Ветер
(напр.,м/с)
 
Видим.   Явления Облачность Т
(С)
Тd
(С)
f
(%)
Тe
(С)
Тes
(С)
Комфортность P
(гПа)
Po
(гПа)
Тmin
(С)
Tmax
(С)
R
(мм)
R24
(мм)
S
(см)
01 9.06 В 6 н/о н/о +10.8 +10.0 95 +7 +7 1006.7 997.1
02 9.06 В 5 н/о н/о +10.8 +9.9 94 +8 +8 1006.5 996.8
03 9.06 СВ 4 500 м {ливн. осадки} 9/5 50 м
[St As op]
+10.4 1006.4 998.2
04 9.06 СВ 4 н/о н/о +10.2 +9.7 97 +7 +7 1006.4 996.7
05 9.06 С 5 н/о н/о +10.1 +9.6 97 +7 +7 1006.6 996.9
06 9.06 С 6
{7}
4000 м 10/10 100 м
[St]
+10.0 1006.7 998.7
07 9.06 С 6 н/о н/о +9.9 +9.3 96 +6 +6 1007.0 997.3
08 9.06 С 4 н/о н/о +10.0 +9.2 95 +7 +7 1007.6 997.9
09 9.06 С 6 10 км 10/9 100 м
[St]
+9.9 1008.3 1000.3
10 9.06 С 5 н/о н/о +10.0 +8.4 90 +7 +7 1008.7 999.0
11 9.06 С 5 н/о н/о +10.3 +7.9 85 +7 +7 1009.2 999.5
12 9.06 СЗ 6
{6}
10 км 9/9 200 м
[Frnb]
+8.9 1010.0 1002.0
13 9.06 СЗ 6 н/о н/о +9.0 +7.3 89 +5 +5 1010.5 1000.8
14 9.06 СЗ 6 н/о н/о +8.9 +6.9 87 +5 +5 1011.2 1001.5
15 9.06 З 6 20 км {метель} 9/9 300 м
[Frnb]
+8.9 1012.0 1004.0
16 9.06 З 7 н/о н/о +8.6 +6.0 84 +4 +4 1012.4 1002.6
17 9.06 З 6 н/о н/о +8.6 +6.0 84 +5 +5 1012.8 1003.1
18 9.06 З 7
{8}
20 км {туман} 9/6 300 м
[Cu med, cong Ac trans]
+8.5 1013.3 1005.0
19 9.06 З 7 н/о н/о +8.5 +5.9 84 +4 +4 1013.7 1003.9
20 9.06 З 7 н/о н/о +8.5 +5.5 81 +4 +4 1014.1 1004.3
21 9.06 З 7 20 км {туман} 8/6 300 м
[Cu med, cong Ac trans Ci fib]
+8.5 1014.7 1006.4
22 9.06 З 8 н/о н/о +8.4 +4.9 79 +4 +4 1015.1 1005.3
23 9.06 З 8 н/о н/о +8.3 +5.6 83 +4 +4 1015.4 1005.6
00 10.06 З 8
{9}
20 км {снег} 9/5 300 м
[Cu Sc As op]
+8.2 1015.6 1007.3
01 10.06 З 8 н/о н/о +8.0 +6.1 88 +3 +3 1015.9 1006.1
02 10.06 З 8 н/о н/о +8.0 +5.9 87 +3 +3 1016.0 1006.1
03 10.06 З 8 4000 м {метель} 10/9 300 м
[Frnb]
1015.8 1007.5
04 10.06 ЮЗ 8 н/о н/о +8.2 +6.5 89 +3 +3 1015.8 1005.9
05 10.06 З 9 н/о н/о +8.1 +5.6 84 +3 +3 1016.1 1006.3
06 10.06 З 9
{10}
10 км {ливн. осадки} 9/9 300 м
[Frnb]
+7.9 1016.4 1008.1
07 10.06 ЮЗ 8 н/о н/о +8.1 +6.4 89 +3 +3 1016.5 1006.7
08 10.06 ЮЗ 9 н/о н/о +8.2 +6.1 87 +3 +3 1017.0 1007.1
09 10.06 ЮЗ 9 20 км 10/9 300 м
[Frnb]
+8.5 1017.3 1009.0
10 10.06 ЮЗ 8 н/о н/о +8.7 +5.5 80 +4 +4 1017.8 1008.0
11 10.06 ЮЗ 8 н/о н/о +8.5 +6.5 87 +4 +4 1018.2 1008.4
12 10.06 ЮЗ 8
{10}
20 км 9/9 300 м
[Cb cap]
+8.7 1018.3 1010.0
13 10.06 ЮЗ 7 н/о н/о +8.8 +6.2 84 +5 +5 1018.5 1008.6
14 10.06 ЮЗ 7 н/о н/о +8.7 +6.5 86 +4 +4 1018.6 1008.8
15 10.06 ЮЗ 7 20 км {ливн. осадки} 8/5 300 м
[St Ac und]
+8.6 1018.8 1010.7
16 10.06 ЮЗ 6 н/о н/о +8.8 +6.3 84 +5 +5 1019.2 1009.4
17 10.06 ЮЗ 6 н/о н/о +8.8 +6.0 83 +5 +5 1019.3 1009.5
18 10.06 ЮЗ 5
{9}
20 км {ливн. осадки} 9/5 300 м
[Sc Ac trans]
+8.8 1019.5 1011.4
19 10.06 ЮЗ 6 н/о н/о +8.8 +5.3 79 +5 +5 1019.6 1009.8
20 10.06 ЮЗ 5 н/о н/о +8.8 +6.4 85 +5 +5 1019.8 1010.0
21 10.06 ЮЗ 4 20 км 8/3 600 м
[Sc Ac trans]
+8.9 1020.4 1012.3
22 10.06 ЮЗ 4 н/о н/о +8.8 +6.4 85 +6 +6 1020.8 1010.9
23 10.06 ЮЗ 4 н/о н/о +8.8 +6.7 87 +6 +6 1020.6 1010.8
00 11.06 ЮЗ 3
{6}
20 км {дождь} 9/4 600 м
[Sc Ac As]
+8.8 1020.7 1012.6
01 11.06 Ю 3 н/о н/о +8.8 +6.8 87 +6 +6 1020.6 1010.8
02 11.06 Ю 3 н/о н/о +8.7 +7.2 90 +6 +6 1020.8 1011.0
03 11.06 ЮВ 4 20 км {дождь} 8/5 600 м
[Cu med, cong Ac trans]
+9.0 1021.3 1013.4
04 11.06 ЮВ 4 н/о н/о +9.0 +6.9 87 +6 +6 1021.8 1011.9
05 11.06 ЮВ 3 н/о н/о +8.9 +7.2 89 +6 +6 1022.5 1012.6
06 11.06 В 4
{5}
20 км {ливн. осадки} 6/6 600 м
[Cu med, cong Ac trans Cs]
+9.7 1023.3 1015.4
07 11.06 В 4 н/о н/о +10.6 +6.6 76 +8 +8 1023.6 1013.8
08 11.06 СВ 4 н/о н/о +12.3 +7.5 72 +10 +10 1023.9 1014.2
09 11.06 СВ 6 20 км {туман} 1/1 600 м
[Cu med, cong Ac trans]
+11.2 1024.1 1016.4
10 11.06 СВ 6 н/о н/о +11.4 +8.7 83 +8 +8 1024.1 1014.3
11 11.06 СВ 9 н/о н/о +12.1 +8.4 78 +9 +9 1024.0 1014.2
12 11.06 СВ 11
{11}
20 км {туман} 1/0
[Cs]
+11.9 1023.9 1016.0
13 11.06 СВ 11 н/о н/о +12.2 +8.1 76 +8 +8 1024.0 1014.3
14 11.06 СВ 12 н/о н/о +12.3 +8.3 77 +8 +8 1023.9 1014.2
15 11.06 СВ 13 20 км ясно 1024.2 1016.1
16 11.06 СВ 14 н/о н/о +12.5 +7.8 73 +8 +8 1024.0 1014.3
17 11.06 СВ 15 н/о н/о +12.3 +7.4 72 +8 +8 1024.1 1014.3
18 11.06 СВ 15
{17}
10 км {метель, туман} ясно 1023.6 1015.5
19 11.06 СВ 15 н/о н/о +11.6 +7.2 74 +7 +7 1023.5 1013.7
20 11.06 СВ 15 н/о н/о +11.0 +7.0 76 +6 +6 1023.6 1013.8
21 11.06 СВ 16 10 км {метель, дождь} ясно 1023.3 1015.4
22 11.06 СВ 15 н/о н/о +10.6 +6.9 78 +6 +6 1023.3 1013.5
23 11.06 СВ 15 н/о н/о +10.6 +7.3 80 +6 +6 1023.0 1013.2
00 12.06 СВ 15
{17}
10 км {метель} 5/4 300 м
[Cu hum]
+10.4 1022.9 1014.8
01 12.06 СВ 15 н/о н/о +10.4 +7.3 81 +5 +5 1022.5 1012.7
02 12.06 СВ 14 н/о н/о +10.2 +7.2 82 +5 +5 1022.2 1012.4
03 12.06 СВ 14 10 км {метель, дождь} 9/9 300 м
[Sc]
+10.2 1022.0 1013.9
04 12.06 СВ 15 н/о н/о +10.0 +7.2 83 +5 +5 1022.0 1012.1
05 12.06 СВ 15 н/о н/о +10.0 +7.2 83 +5 +5 1022.2 1012.3
06 12.06 СВ 14
{18}
10 км {метель, ливн. осадки} 9/9 200 м
[Sc]
+10.0 1021.9 1014.0
07 12.06 СВ 14 н/о н/о +10.1 +7.1 82 +5 +5 1021.6 1011.8
08 12.06 СВ 13 н/о н/о +10.2 +7.6 84 +5 +5 1021.5 1011.6
09 12.06 СВ 13 4000 м {метель, дождь} 10/10 200 м
[St]
+10.3 1021.3 1013.2
10 12.06 н/о н/о +10.5 +7.4 81 1021.2 1011.4
11 12.06 СВ 13 н/о н/о +10.7 +7.5 81 +6 +6 1020.9 1011.1
12 12.06 СВ 11
{14}
10 км {ливн. осадки} 9/8 300 м
[St Ac trans]
+11.2 1020.4 1012.3
13 12.06 СВ 12 н/о н/о +10.8 +7.6 81 +6 +6 1019.8 1010.0
14 12.06 СВ 11 н/о н/о +10.8 +7.8 82 +6 +6 1019.3 1009.5
15 12.06 СВ 10 10 км {туман} 9/8 300 м
[St Ac trans]
+10.7 1019.1 1011.0
16 12.06 СВ 11 н/о н/о +10.4 +7.6 83 +6 +6 1018.3 1008.6
17 12.06 СВ 12 н/о н/о +10.2 +7.7 84 +5 +5 1018.2 1008.5
18 12.06 СВ 11
{13}
10 км {туман} 9/8 300 м
[St Ac trans]
+10.2 1018.0 1009.9
19 12.06 СВ 12 н/о н/о +10.1 +7.6 84 +5 +5 1017.1 1007.4
20 12.06 СВ 13 н/о н/о +10.0 +7.3 83 +5 +5 1016.2 1006.4
21 12.06 СВ 12 10 км {снег} 10/10 200 м
[St]
+9.8 1015.9 1007.8
22 12.06 СВ 12 н/о н/о +10.1 +7.5 84 +5 +5 1015.1 1005.3
23 12.06 СВ 11 н/о н/о +9.8 +7.8 87 +5 +5 1014.2 1004.4
00 13.06 С 12
{13}
н/о {дождь} н/о 1013.1 1005.1
01 13.06 С 12 н/о н/о +9.4 +7.5 88 +4 +4 1012.1 1002.3
02 13.06 СВ 12 н/о н/о +9.5 +7.8 89 +4 +4 1010.6 1000.9
03 13.06 СВ 12 4000 м 10/10 200 м
[Sc]
+9.7 1009.2 1001.2
04 13.06 СВ 12 н/о н/о +9.8 +7.9 88 +5 +5 1007.9 998.2
05 13.06 СВ 12 н/о н/о +10.2 +8.2 87 +5 +5 1006.8 997.2
06 13.06 СВ 12
{14}
4000 м {туман} 10/10 200 м
[St]
+10.5 1006.6 998.6
07 13.06 СВ 10 н/о н/о +10.6 +8.4 86 +6 +6 1006.4 996.8
08 13.06 СВ 10 н/о н/о +10.5 +8.5 87 +6 +6 1005.9 996.2
09 13.06 СВ 9 4000 м {гроза} 10/10 200 м
[St]
+10.3 1005.3 997.3
10 13.06 СВ 9 н/о н/о +10.6 +9.3 92 +6 +6 1005.0 995.4
11 13.06 СВ 7 н/о н/о +10.9 +9.5 91 +7 +7 1004.6 995.0
12 13.06 ЮВ 4
{13}
4000 м {метель} 10/10 200 м
[Frnb]
+10.2 1004.9 996.9
13 13.06 Ю 6 н/о н/о +10.4 +10.0 97 +7 +7 1005.1 995.5
14 13.06 ЮВ 8 н/о н/о +10.6 +10.4 99 +7 +7 1005.2 995.6
15 13.06 Ю 10 4000 м {морось} 10/10 100 м
[St]
+11.1 1005.3 997.3
16 13.06 Ю 11 н/о н/о +11.4 +10.0 91 +7 +7 1005.8 996.1
17 13.06 Ю 11 н/о н/о +11.6 +10.0 90 +7 +7 1006.3 996.6
18 13.06 Ю 11
{14}
10 км {гроза} 9/9 300 м
[Sc]
+11.6 1007.0 998.8
19 13.06 Ю 13 н/о н/о +11.6 +9.7 88 +7 +7 1007.4 997.8
20 13.06 Ю 10 н/о н/о +11.5 +10.0 90 +8 +8 1008.5 998.9
21 13.06 Ю 10 10 км 9/9 300 м
[Sc]
+11.6 1009.3 1001.3
22 13.06 Ю 9 н/о н/о +11.3 +10.3 94 +7 +7 1009.6 1000.0
23 13.06 Ю 11 н/о н/о +11.4 +10.4 94 +7 +7 1010.1 1000.5
00 14.06 Ю 10
{13}
10 км 9/5 300 м
[Sc Ac trans]
+11.4 1010.6 1002.4
01 14.06 ЮВ 11 н/о н/о +11.3 +9.9 91 +7 +7 1010.8 1001.2
02 14.06 ЮВ 12 н/о н/о +11.6 +9.8 89 +7 +7 1011.0 1001.3
03 14.06 ЮВ 12 н/о {гроза} н/о 1011.3 1003.0
04 14.06 ЮВ 11 н/о н/о +11.9 +9.8 87 +8 +8 1011.6 1002.0
05 14.06 ЮВ 11 н/о н/о +12.5 +9.3 81 +9 +9 1012.1 1002.4
06 14.06 ЮВ 9
{14}
20 км {метель} 9/0 1500 м
[As op]
+11.8 1012.7 1004.7
07 14.06 ЮВ 10 н/о н/о +12.1 +9.3 83 +8 +8 1012.8 1003.2
08 14.06 ЮВ 9 н/о н/о +12.1 +9.4 84 +9 +9 1013.3 1003.6
09 14.06 ЮВ 10 20 км {гроза} 9/9 1000 м
[Cu Sc]
+13.3 1013.2 1004.9
10 14.06 ЮВ 11 н/о н/о +13.2 +8.3 72 +10 +10 1013.5 1003.8
11 14.06 ЮВ 12 н/о н/о +13.9 +8.0 68 +11 +11 1013.7 1004.1
12 14.06 ЮВ 10
{12}
50 км {гроза} 8/5 1000 м
[Sc Ac trans]
+13.4 1014.3 1006.3
13 14.06 ЮВ 10 н/о н/о +13.3 +9.5 78 +10 +10 1014.7 1005.0
14 14.06 Ю 9 н/о н/о +13.0 +10.0 82 +10 +10 1014.7 1005.1
15 14.06 Ю 9 50 км {морось} 5/0
[Ac trans Ci fib]
+12.7 1014.9 1006.9
16 14.06 Ю 9 н/о н/о +12.1 +10.5 90 +9 +9 1014.7 1005.0
17 14.06 Ю 8 н/о н/о +12.2 +10.6 90 +9 +9 1015.3 1005.6
18 14.06 Ю 7
{12}
10 км {морось} 5/1 300 м
[Sc Ac trans]
+12.0 1015.5 1007.2
19 14.06 Ю 7 н/о н/о +12.1 +10.6 91 +9 +9 1015.6 1006.0
20 14.06 Ю 8 н/о н/о +12.0 +10.6 91 +9 +9 1016.2 1006.5
21 14.06 ЮВ 7 10 км {метель} 9/9 200 м
[Sc]
+11.7 1016.8 1008.5
22 14.06 ЮВ 7 н/о н/о +11.7 +10.7 94 +8 +8 1017.0 1007.3
23 14.06 Ю 8 н/о н/о +11.4 +10.8 96 +8 +8 1017.4 1007.7
00 15.06 Ю 8
{10}
4000 м {туман} 9/1 100 м
[St Ac trans]
+11.3 1017.4 1009.1
01 15.06 Ю 8 н/о н/о +11.4 +10.7 95 +8 +8 1017.3 1007.6
02 15.06 Ю 8 н/о н/о +11.3 +10.8 97 +8 +8 1017.4 1007.7
03 15.06 Ю 7 4000 м 5/0
[Ac trans]
+11.1 1017.6 1009.3
04 15.06 ЮВ 7 н/о н/о +11.3 +10.7 96 +8 +8 1017.8 1008.0
05 15.06 ЮВ 7 н/о н/о +11.0 +10.5 97 +7 +7 1017.9 1008.2
06 15.06 ЮВ 7
{7}
н/о н/о 1017.9 1009.6
07 15.06 Ю 7 н/о н/о +12.0 +10.1 88 +9 +9 1018.3 1008.6
08 15.06 Ю 6 н/о н/о +12.2 +9.9 86 +9 +9 1018.4 1008.7
09 15.06 ЮВ 6 20 км 3/0
[Ci]
+13.3 1018.5 1010.2
10 15.06 ЮВ 5 н/о н/о +13.0 +9.8 81 +11 +11 1018.5 1008.8
11 15.06 В 5 н/о н/о +14.4 +9.3 71 +13 +13 1018.2 1008.6
12 15.06 В 6
{8}
20 км {гроза} 3/0
[Ci]
+15.3 1017.9 1009.6
13 15.06 В 8 н/о н/о +15.5 +8.9 65 +14 +14 1017.4 1007.9
14 15.06 В 9 н/о н/о +15.3 +9.5 68 +13 +13 1017.0 1007.4
15 15.06 В 10 20 км {ливн. осадки} 9/0
[Cs]
+15.2 1016.5 1008.2
16 15.06 В 11 н/о н/о +14.8 +10.1 73 +12 +12 1016.1 1006.5
17 15.06 В 10 н/о н/о +14.3 +9.9 75 +12 +12 1015.2 1005.6
18 15.06 СВ 9
{11}
20 км 9/0
[Cs]
+13.5 1014.5 1006.5
19 15.06 СВ 9 н/о н/о +12.9 +10.2 84 +10 +10 1013.9 1004.3
20 15.06 СВ 8 н/о н/о +12.8 +10.4 85 +10 +10 1013.4 1003.8
21 15.06 В 7 20 км {ливн. осадки} 9/0
[Ac As]
+12.5 1013.5 1005.2
22 15.06 В 6 н/о н/о +12.0 +10.3 89 +9 +9 1013.9 1004.2
23 15.06 ЮВ 5 н/о н/о +11.6 +10.7 94 +9 +9 1013.5 1003.8

 

Местоположение метеостанции Гуллфакс (Норвегия): широта 61.20 долгота 2.27 высота над уровнем моря 80 м.

В архиве по умолчанию представлена погода на Гуллфаксе за последнюю неделю. Архивные данные за месяц целиком и за предыдущие месяцы, начиная с января 2011 года, Вы можете получить, выбрав интересующий диапазон дат из раскрывающегося списка и нажав кнопку "Ввод!".


*Определитесь, кто Вы:
робот инопланетянин человек

Внимание! Время в таблицах - всемирное. Для получения местного времени необходимо прибавить поправку, которая равна 1 ч.

Смотрите также архив погоды в соседних городах и на ближайших метеорологических станциях:

Погода на Маяке Ytteroyane (Норвегия) (135 км)
Погода в Федье (Норвегия) (140 км)
Погода в Фурунесете (Норвегия) (149 км)
Погода в Флоро аэропорту (Норвегия) (153 км)
Погода в Такле (Норвегия) (168 км)
Погода на Маяке Krakenes (Норвегия) (171 км)
Погода в Болтасаунде (Великобритания) (176 км)
Погода во Флурё аэропорту (Норвегия) (188 км)
Погода в Бергене (Норвегия) (189 км)
Погода во Флурё (Норвегия) (197 км)

Пояснения к столбцам:

Ветер - указаны скорость ветра в м/с - средняя за 10 мин, порывы в срок и между сроками (в фигурных скобках) и направление, откуда дует ветер: С - северный, СВ - северо-восточный, В - восточный, ЮВ - юго-восточный, Ю - южный, ЮЗ - юго-западный, З - западный, СЗ - северо-западный.
Видимость - горизонтальная дальность видимости в метрах или километрах. При видимости от 1 до 10 км при отсутствии осадков обычно наблюдается дымка, при ухудшении видимости до 1 км и менее - туман. В сухую погоду видимость может ухудшаться дымом, пылью или мглою.
Явления - указаны атмосферные явления, наблюдавшиеся в срок или в последний час перед сроком; фигурными скобками обозначены явления, наблюдавшиеся между сроками (за 1-3 часа до срока); квадратными скобками обозначены град или гололедные отложения с указанием их диаметра в мм.
Облачность - указаны через наклонную черту общая и нижняя облачность в баллах и высота нижней границы облаков в метрах; квадратными скобками обозначены формы облаков: Ci - перистые, Cs - перисто-слоистые, Cc - перисто-кучевые, Ac - высококучевые, As - высокослоистые, Sc - слоисто-кучевые, Ns - слоисто-дождевые, Cu - кучевые, Cb - кучево-дождевые. Подробнее классификацию облаков см. в Атласе облаков (PDF).
T - Температура воздуха - температура, измеренная на высоте 2 м над землей.
Td - Температура точки росы - температура, при понижении до которой содержащийся в воздухе водяной пар достигнет насыщения.
f - Относительная влажность воздуха - влажноcть воздуха, измеренная на высоте 2 м над землей.
Te - Эффективная температура - температура, которую ощущает одетый по сезону человек в тени. Характеристика душности погоды. При расчете учитывается влияние влажности воздуха и скорости ветра на теплоощущения человека.
Tes - Эффективная температура на солнце - температура, которую ощущает человек, с поправкой на солнечный нагрев. Характеристика знойности погоды. Зависит от высоты солнца над горизонтом, облачности и скорости ветра. Ночью, в пасмурную погоду, а также при ветре 12 м/с и более поправка равна нулю.
P - Атмосферное давление - приведенное к уровню моря атмосферное давление.
Po - Атмосферное давление - измеренное на уровне метеостанции атмосферное давление.
Tmin - Минимальная температура - минимум температуры воздуха на высоте 2 м над землей.
Tmax - Максимальная температура - максимум температуры воздуха на высоте 2 м над землей.
R - Количество осадков - Количество выпавших осадков за период времени, мм. При наведении курсора мыши на число - период времени, за который выпало указанное количество осадков.
R24 - Количество осадков - Количество выпавших осадков за 24 часа, мм.
S - Снежный покров - Высота снежного покрова, см. При наведении курсора мыши на число - состояние снежного покрова и степень покрытия местности в баллах.